This is the latest recevied weather packets stored in our database for station/object OK9CPU-9. If no packets are shown the sender has not sent any weather packets the latest 10 day(s).
| Time | Temp. | Humidity | Pressure | Rain* | Wind** | Luminosity | Snow |
|---|---|---|---|---|---|---|---|
| 1788250575 | 38.33° C | 19% | 1020.5 hPa | - | - | - | - |
| 1788244605 | 32.22° C | 20% | 1020.1 hPa | - | - | - | - |
| 1788240625 | 22.78° C | 24% | 1019.6 hPa | - | - | - | - |
| 1788237640 | 13.33° C | 34% | 1019.4 hPa | - | - | - | - |
| 1788235650 | 12.78° C | 35% | 1019 hPa | - | - | - | - |
| 1788232664 | 13.33° C | 35% | 1018.8 hPa | - | - | - | - |
| 1788230674 | 13.89° C | 35% | 1018.8 hPa | - | - | - | - |
| 1788227689 | 14.44° C | 35% | 1018.4 hPa | - | - | - | - |
| 1788221719 | 16.11° C | 35% | 1018.1 hPa | - | - | - | - |
| 1788216744 | 18.33° C | 33% | 1018.5 hPa | - | - | - | - |
| 1788215749 | 18.33° C | 34% | 1018.6 hPa | - | - | - | - |
| 1788214754 | 18.33° C | 34% | 1018.7 hPa | - | - | - | - |
| 1788211769 | 18.89° C | 34% | 1018.2 hPa | - | - | - | - |
| 1788210774 | 18.89° C | 34% | 1018 hPa | - | - | - | - |
| 1788209779 | 18.89° C | 35% | 1017.8 hPa | - | - | - | - |
| 1788208784 | 18.89° C | 35% | 1017.2 hPa | - | - | - | - |
| 1788206794 | 20° C | 35% | 1016.4 hPa | - | - | - | - |
| 1788205798 | 20° C | 34% | 1016.2 hPa | - | - | - | - |
| 1788203808 | 20.56° C | 34% | 1016 hPa | - | - | - | - |
| 1788201818 | 21.11° C | 35% | 1015.9 hPa | - | - | - | - |
| 1788200823 | 21.67° C | 35% | 1015.6 hPa | - | - | - | - |
| 1788199828 | 21.67° C | 35% | 1015.3 hPa | - | - | - | - |
| 1788197838 | 23.33° C | 34% | 1014.9 hPa | - | - | - | - |
| 1788196843 | 24.44° C | 34% | 1014.8 hPa | - | - | - | - |
| 1788195848 | 25.56° C | 33% | 1014.9 hPa | - | - | - | - |
* Rain since midnight (hover to see other rain measurements)
** Current wind speed in m/s (hover to see current wind gust speed)